Weather History for Sheridan, WY

Change the Weather History Date:

Friday, May 31, 2013

  Actual Average Record
Temperature  
Mean Temperature 49 °F 57 °F  
Max Temperature 53 °F 71 °F 92 °F (1940)
Min Temperature 45 °F 42 °F 27 °F (1982)
Degree Days  
Heating Degree Days 16 9  
Month to date heating degree days 339 393  
Since 1 July heating degree days 7431 7494  
Cooling Degree Days 0 0  
Month to date cooling degree days 8 4  
Year to date cooling degree days 8 4  
Moisture  
Dew Point 41 °F    
Average Humidity 73    
Maximum Humidity 86    
Minimum Humidity 59    
Precipitation  
Precipitation 0.10 in 0.08 in 1.26 in (1909)
Month to date precipitation 3.03 2.35  
Year to date precipitation 7.32 6.03  
Sea Level Pressure  
Sea Level Pressure 29.94 in    
Wind  
Wind Speed 29 mph (NW)    
Max Wind Speed 44 mph    
Max Gust Speed 54 mph    
Visibility 10 miles    
Events Rain    
T = Trace of Precipitation, MM = Missing Value Source: NWS Daily Summary

Daily Weather History Graph

Daily Weather History Graph

Search for Another Location

Airport:

Trip Planner

Search our weather history database for the weather conditions in past years. The results will help you decide how hot, cold, wet, or windy it might be!

Date:

Astronomy

May. 31, 2013 Rise Set
Actual Time 5:25 AM MDT 8:46 PM MDT
Civil Twilight 4:49 AM MDT 9:22 PM MDT
Nautical Twilight 4:02 AM MDT 10:09 PM MDT
Astronomical Twilight 3:04 AM MDT 11:08 PM MDT
Moon 1:10 AM MDT (5/31) 12:57 PM MDT (5/31)
Length of Visible Light 16h 32m
Length of Day
15h 20m
Waning Gibbous, 51% of the Moon is Illuminated
May 31
Waning Gibbous
May 31
Last Quarter
Jun 8
New
Jun 16
First Quarter
Jun 23
Full

Hourly Weather History & Observations

Time (MDT) Temp. Windchill Dew Point Humidity Pressure Visibility Wind Dir Wind Speed Gust Speed Precip Events Conditions
12:53 AM 46.0 °F 37.4 °F 41.0 °F 83% 29.77 in 10.0 mi NW 25.3 mph 31.1 mph N/A   Overcast
1:53 AM 46.9 °F - 39.0 °F 74% 29.75 in 10.0 mi NW 32.2 mph 41.4 mph N/A   Overcast
2:53 AM 46.9 °F - 39.0 °F 74% 29.74 in 10.0 mi NW 28.8 mph 41.4 mph N/A   Mostly Cloudy
3:53 AM 46.0 °F 37.0 °F 39.0 °F 76% 29.75 in 10.0 mi NW 27.6 mph 41.4 mph N/A   Overcast
4:53 AM 46.9 °F - 37.9 °F 71% 29.74 in 10.0 mi NW 34.5 mph 49.5 mph N/A   Overcast
5:53 AM 45.0 °F 35.8 °F 39.0 °F 80% 29.77 in 10.0 mi NW 26.5 mph 38.0 mph 0.00 in Rain Light Rain
6:53 AM 46.9 °F - 39.0 °F 74% 29.78 in 10.0 mi NW 31.1 mph 39.1 mph 0.00 in   Overcast
7:53 AM 48.9 °F - 39.0 °F 69% 29.80 in 10.0 mi NW 29.9 mph 41.4 mph N/A   Overcast
8:53 AM 50.0 °F - 37.9 °F 63% 29.81 in 10.0 mi NW 33.4 mph 47.2 mph N/A   Overcast
9:53 AM 50.0 °F - 37.9 °F 63% 29.82 in 10.0 mi NW 33.4 mph 47.2 mph N/A   Overcast
10:53 AM 50.0 °F - 39.0 °F 66% 29.84 in 10.0 mi NW 31.1 mph 49.5 mph N/A   Overcast
11:53 AM 51.1 °F - 39.9 °F 66% 29.85 in 10.0 mi NW 34.5 mph 47.2 mph 0.00 in   Overcast
12:53 PM 52.0 °F - 39.9 °F 63% 29.87 in 10.0 mi NW 34.5 mph 49.5 mph 0.00 in   Overcast
1:53 PM 53.1 °F - 39.9 °F 61% 29.88 in 10.0 mi NW 35.7 mph 46.0 mph N/A   Overcast
2:53 PM 52.0 °F - 41.0 °F 66% 29.91 in 10.0 mi NW 26.5 mph 39.1 mph N/A   Overcast
3:53 PM 52.0 °F - 41.0 °F 66% 29.93 in 10.0 mi NW 34.5 mph 49.5 mph N/A   Overcast
4:53 PM 51.1 °F - 42.1 °F 71% 29.96 in 10.0 mi NW 35.7 mph 46.0 mph N/A   Overcast
5:44 PM 48.2 °F - 42.8 °F 82% 30.00 in 10.0 mi NW 28.8 mph 41.4 mph 0.00 in   Overcast
5:53 PM 48.0 °F - 43.0 °F 83% 30.01 in 10.0 mi NNW 26.5 mph 35.7 mph 0.00 in   Overcast
6:00 PM 48.2 °F - 42.8 °F 82% 30.00 in 10.0 mi NW 28.8 mph 34.5 mph N/A   Overcast
6:27 PM 46.4 °F 37.0 °F 42.8 °F 87% 30.03 in 10.0 mi NW 31.1 mph 40.3 mph N/A   Overcast
6:53 PM 46.9 °F - 43.0 °F 86% 30.05 in 10.0 mi NNW 25.3 mph 40.3 mph N/A   Overcast
7:03 PM 46.4 °F 38.1 °F 42.8 °F 87% 30.05 in 10.0 mi NNW 24.2 mph 36.8 mph N/A   Overcast
7:14 PM 46.4 °F 38.3 °F 42.8 °F 87% 30.06 in 10.0 mi NW 23.0 mph 36.8 mph N/A   Overcast
7:39 PM 46.4 °F 37.9 °F 42.8 °F 87% 30.07 in 10.0 mi NW 25.3 mph 36.8 mph N/A   Mostly Cloudy
7:53 PM 46.9 °F - 42.1 °F 83% 30.06 in 10.0 mi WNW 32.2 mph 41.4 mph N/A   Overcast
8:04 PM 46.4 °F 36.5 °F 42.8 °F 87% 30.07 in 10.0 mi NW 34.5 mph 46.0 mph 0.00 in Rain Rain
8:53 PM 46.0 °F 37.8 °F 42.1 °F 86% 30.10 in 10.0 mi WNW 23.0 mph 36.8 mph 0.05 in Rain Light Rain
9:53 PM 46.0 °F 37.4 °F 42.1 °F 86% 30.14 in 10.0 mi WNW 25.3 mph 33.4 mph 0.04 in Rain Light Rain
10:53 PM 46.9 °F - 43.0 °F 86% 30.16 in 10.0 mi WNW 20.7 mph 32.2 mph 0.00 in   Overcast
11:14 PM 46.4 °F 38.3 °F 42.8 °F 87% 30.17 in 10.0 mi NW 23.0 mph 28.8 mph N/A   Overcast
11:53 PM 46.9 °F - 43.0 °F 86% 30.19 in 10.0 mi NW 19.6 mph 29.9 mph 0.01 in Rain Light Rain